Location: Zagreb
(45.8000°N, 16.0000°E)
Time: 02:46:05
(UTC+02:00)

Transit 2A Rocket - Pass Details

Date: 26 January 2022
Orbit: 592 x 909 km, 66.7° (Epoch: 26 May)

Event Time Altitude Azimuth Distance (km) Brightness Sun altitude
Rises 22:04:35 0° 298° (WNW) 3,544 9.0 -52.6°
Enters shadow 22:06:55 - 312° (NW) 3,009 8.6 -52.9°
Reaches altitude 10° 22:10:16 10° 340° (NNW) 2,577 - -53.4°
Maximum altitude 22:10:59 10° 347° (NNW) 2,556 - -53.5°
Drops below altitude 10° 22:11:43 10° 354° (N) 2,565 - -53.6°
Sets 22:17:15 0° 37° (NE) 3,434 - -54.3°
